VA3PC-13 Weather Reports


Display with metric or nautical units.
time (UTC)temp
F
wind
direction
speed
MPH
gust
MPH
rain 1hr
in
rain 24hr
in
rain mn
in
humidity
%
barometer
mb
20180822030516 65 320 4.0 10.0 0.00 0.41 0.41 100 1002.9
20180822025516 65 321 5.0 9.0 0.00 0.41 0.41 100 1003.0
20180822024516 65 324 3.0 6.0 0.00 0.41 0.41 99 1003.0
20180822023516 65 325 4.0 11.0 0.01 0.41 0.41 99 1003.0
20180822022527 65 0 3.0 8.0 0.01 0.41 0.41 99 1003.1
20180822021516 65 0 5.0 10.0 0.01 0.41 0.41 100 1003.1
20180822020516 65 10 3.0 8.0 0.01 0.41 0.41 99 1003.2
20180822015516 65 359 6.0 13.0 0.02 0.41 0.41 100 1003.3
20180822014516 65 343 5.0 10.0 0.02 0.41 0.41 99 1003.4
20180822013517 64 347 4.0 9.0 0.01 0.40 0.40 99 1003.5
20180822012516 64 354 6.0 13.0 0.01 0.40 0.40 99 1003.6
20180822011516 64 18 6.0 11.0 0.02 0.40 0.40 98 1003.9
20180822010517 63 16 5.0 13.0 0.02 0.40 0.40 98 1003.9
20180822005516 63 24 5.0 10.0 0.02 0.38 0.38 98 1004.0
20180822004516 63 50 8.0 15.0 0.04 0.38 0.38 98 1004.2
20180822003516 63 45 9.0 18.0 0.07 0.38 0.38 97 1004.1
20180822002516 63 43 8.0 16.0 0.08 0.38 0.38 97 1004.2
20180822001516 63 46 5.0 12.0 0.09 0.37 0.37 97 1004.3
20180822000518 63 51 5.0 10.0 0.13 0.37 0.37 97 1004.3
20180821235516 64 47 9.0 19.0 0.14 0.36 0.36 96 1004.3
20180821234517 64 47 10.0 17.0 0.15 0.34 0.34 96 1004.3
20180821233516 64 51 7.0 12.0 0.15 0.31 0.31 96 1004.7
20180821232516 65 60 8.0 18.0 0.15 0.30 0.30 95 1004.9
20180821231517 65 55 14.0 23.0 0.13 0.27 0.27 95 1004.7
20180821230516 66 62 7.0 14.0 0.09 0.24 0.24 95 1005.0
20180821225516 66 66 7.0 14.0 0.08 0.22 0.22 96 1005.2
20180821224517 67 56 8.0 13.0 0.06 0.19 0.19 96 1005.3
20180821223516 67 61 9.0 19.0 0.04 0.15 0.15 96 1005.4
20180821222516 67 60 8.0 15.0 0.03 0.14 0.14 95 1005.5
20180821221516 67 62 7.0 15.0 0.05 0.14 0.14 95 1005.6
20180821220516 68 56 9.0 16.0 0.06 0.14 0.14 95 1005.8
20180821215517 68 63 8.0 14.0 0.07 0.13 0.13 95 1006.1
20180821214516 68 56 6.0 10.0 0.06 0.12 0.12 94 1006.2
20180821213516 68 67 5.0 15.0 0.06 0.11 0.11 94 1006.3
20180821212517 68 56 6.0 11.0 0.07 0.11 0.11 93 1006.4
20180821211516 69 68 7.0 13.0 0.07 0.09 0.09 93 1006.6
20180821210516 69 57 7.0 14.0 0.06 0.08 0.08 92 1006.8
20180821205517 69 67 5.0 9.0 0.04 0.06 0.06 91 1006.8
20180821204516 70 57 3.0 5.0 0.06 0.06 0.06 91 1006.9
20180821203516 70 53 3.0 5.0 0.04 0.04 0.04 90 1007.1
20180821202517 70 60 2.0 3.0 0.03 0.03 0.03 88 1007.4
20180821201516 70 83 2.0 3.0 0.01 0.01 0.01 86 1007.7
20180821200516 71 100 2.0 5.0 0.01 0.01 0.01 84 1007.9
20180821195517 72 84 5.0 14.0 0.01 0.01 0.01 82 1007.8
20180821194516 73 77 7.0 12.0 0.00 0.00 0.00 80 1007.9
20180821193517 73 82 8.0 14.0 0.00 0.00 0.00 80 1008.0
20180821192516 73 79 4.0 8.0 0.00 0.00 0.00 80 1008.1
20180821191516 73 88 6.0 10.0 0.00 0.00 0.00 79 1008.2
20180821190517 73 95 6.0 13.0 0.00 0.00 0.00 79 1008.2
20180821185516 73 98 7.0 11.0 0.00 0.00 0.00 79 1008.4
20180821184516 73 109 4.0 12.0 0.00 0.00 0.00 79 1008.5
20180821183517 73 101 8.0 18.0 0.00 0.00 0.00 80 1008.6
20180821182516 73 96 5.0 11.0 0.00 0.00 0.00 80 1008.6
20180821181516 72 80 5.0 11.0 0.00 0.00 0.00 81 1008.7
20180821180517 72 83 6.0 13.0 0.00 0.00 0.00 81 1009.0
20180821175516 72 107 5.0 11.0 0.00 0.00 0.00 80 1009.2
20180821174516 73 83 8.0 13.0 0.00 0.00 0.00 80 1009.2
20180821173516 72 95 5.0 13.0 0.00 0.00 0.00 80 1009.3
20180821172516 72 102 8.0 18.0 0.00 0.00 0.00 80 1009.3
20180821171516 72 113 6.0 13.0 0.00 0.00 0.00 81 1009.4
20180821170517 72 99 5.0 10.0 0.00 0.00 0.00 81 1009.6
20180821165516 72 113 3.0 6.0 0.00 0.00 0.00 81 1009.8
20180821164517 72 98 7.0 13.0 0.00 0.00 0.00 81 1010.0
20180821163517 72 123 6.0 12.0 0.00 0.00 0.00 82 1010.1
20180821162521 71 104 5.0 13.0 0.00 0.00 0.00 82 1010.0
20180821161517 71 100 6.0 14.0 0.00 0.00 0.00 82 1010.3
20180821160516 71 98 6.0 13.0 0.00 0.00 0.00 83 1010.5
20180821155516 70 98 3.0 7.0 0.00 0.00 0.00 84 1010.5
20180821154516 70 107 4.0 7.0 0.00 0.00 0.00 84 1010.7
20180821153516 70 97 3.0 8.0 0.00 0.00 0.00 85 1010.8
20180821152516 69 86 5.0 10.0 0.00 0.00 0.00 85 1010.9
20180821151516 69 92 5.0 13.0 0.00 0.00 0.00 85 1011.1
20180821150516 69 84 5.0 9.0 0.00 0.00 0.00 86 1011.3
20180821145517 68 75 4.0 7.0 0.00 0.00 0.00 86 1011.4
20180821144517 68 135 2.0 7.0 0.00 0.00 0.00 86 1011.6
20180821143516 68 113 3.0 7.0 0.00 0.00 0.00 86 1011.4
20180821142517 67 99 3.0 7.0 0.00 0.00 0.00 86 1011.4
20180821141517 67 98 6.0 12.0 0.00 0.00 0.00 86 1011.4
20180821140516 67 106 4.0 7.0 0.00 0.00 0.00 86 1011.6
20180821135517 67 93 4.0 8.0 0.00 0.00 0.00 86 1011.7
20180821134517 67 94 4.0 9.0 0.00 0.00 0.00 86 1012.0
20180821133516 67 86 3.0 7.0 0.00 0.00 0.00 86 1012.1
20180821132516 67 101 4.0 7.0 0.00 0.00 0.00 86 1012.2
20180821131516 66 88 3.0 7.0 0.00 0.00 0.00 86 1012.4
20180821130516 66 78 3.0 8.0 0.00 0.00 0.00 86 1012.5
20180821125516 66 104 3.0 6.0 0.00 0.00 0.00 86 1012.6
20180821124516 66 119 3.0 5.0 0.00 0.00 0.00 86 1012.7
20180821123517 65 116 4.0 7.0 0.00 0.00 0.00 87 1012.8
20180821122516 65 142 2.0 7.0 0.00 0.00 0.00 87 1013.0
20180821121516 65 105 4.0 8.0 0.00 0.00 0.00 87 1012.8
20180821120517 65 100 4.0 9.0 0.00 0.00 0.00 87 1012.9
20180821115516 64 97 4.0 7.0 0.00 0.00 0.00 88 1013.0
20180821114516 64 112 3.0 7.0 0.00 0.00 0.00 88 1013.1
20180821113516 64 107 2.0 4.0 0.00 0.00 0.00 88 1013.1
20180821112516 64 109 3.0 7.0 0.00 0.00 0.00 88 1013.1
20180821111517 63 129 3.0 8.0 0.00 0.00 0.00 88 1013.3
20180821110516 63 105 3.0 6.0 0.00 0.00 0.00 88 1013.3
20180821105516 63 109 3.0 6.0 0.00 0.00 0.00 88 1013.3
20180821104517 63 116 4.0 6.0 0.00 0.00 0.00 88 1013.4
20180821103516 63 115 4.0 8.0 0.00 0.00 0.00 88 1013.4
20180821102517 63 127 3.0 7.0 0.00 0.00 0.00 88 1013.4
20180821101517 63 108 2.0 6.0 0.00 0.00 0.00 88 1013.6
20180821100516 63 140 1.0 3.0 0.00 0.00 0.00 88 1013.7
20180821095516 63 121 1.0 3.0 0.00 0.00 0.00 88 1013.7
20180821094516 63 107 2.0 3.0 0.00 0.00 0.00 88 1013.7
20180821093516 64 104 2.0 4.0 0.00 0.00 0.00 87 1013.8
20180821092516 64 111 1.0 3.0 0.00 0.00 0.00 87 1014.0
20180821090518 64 88 2.0 3.0 0.00 0.00 0.00 87 1014.1
20180821085517 64 96 2.0 3.0 0.00 0.00 0.00 86 1014.1
20180821084516 64 126 1.0 3.0 0.00 0.00 0.00 86 1014.2
20180821083516 64 142 2.0 4.0 0.00 0.00 0.00 86 1014.2
20180821082517 65 131 2.0 5.0 0.00 0.00 0.00 86 1014.2
20180821081516 65 118 2.0 5.0 0.00 0.00 0.00 85 1014.2
20180821080516 65 128 2.0 4.0 0.00 0.00 0.00 85 1014.4
20180821075516 65 129 3.0 5.0 0.00 0.00 0.00 85 1014.4
20180821074516 65 135 3.0 4.0 0.00 0.00 0.00 85 1014.5
20180821073516 65 130 2.0 4.0 0.00 0.00 0.00 85 1014.6
20180821072516 66 132 2.0 4.0 0.00 0.00 0.00 85 1014.8
20180821071516 66 135 3.0 6.0 0.00 0.00 0.00 85 1014.8
20180821070517 66 140 3.0 5.0 0.00 0.00 0.00 85 1014.9
20180821065516 66 151 3.0 5.0 0.00 0.00 0.00 85 1015.1
20180821064516 66 148 3.0 5.0 0.00 0.00 0.00 86 1015.2
20180821063517 66 149 2.0 5.0 0.00 0.00 0.00 86 1015.3
20180821062516 66 139 2.0 5.0 0.00 0.00 0.00 86 1015.3
20180821061516 66 152 2.0 5.0 0.00 0.00 0.00 86 1015.4
20180821060517 65 159 3.0 5.0 0.00 0.00 0.00 86 1015.6
20180821055516 65 176 4.0 7.0 0.00 0.00 0.00 86 1015.7
20180821054516 65 162 3.0 6.0 0.00 0.00 0.00 86 1015.7
20180821053516 65 164 3.0 5.0 0.00 0.00 0.00 86 1015.8
20180821052516 65 173 4.0 7.0 0.00 0.00 0.00 85 1015.9
20180821051517 66 169 4.0 7.0 0.00 0.00 0.00 85 1016.0
20180821050516 66 174 4.0 7.0 0.00 0.00 0.00 85 1016.1
20180821045516 66 173 4.0 9.0 0.00 0.00 0.00 85 1016.2
20180821044516 66 170 5.0 7.0 0.00 0.00 0.00 85 1016.3
20180821043516 66 175 5.0 8.0 0.00 0.00 0.00 85 1016.4
20180821042516 66 175 5.0 11.0 0.00 0.00 0.00 85 1016.6
20180821041516 65 166 5.0 10.0 0.00 0.00 0.00 85 1016.6
20180821040516 66 173 5.0 9.0 0.00 0.00 0.00 84 1016.7
20180821035516 66 156 6.0 9.0 0.00 0.00 0.00 84 1016.7
20180821034516 66 160 5.0 9.0 0.00 0.00 0.00 84 1016.7
20180821033516 66 172 4.0 7.0 0.00 0.00 0.00 84 1016.8
20180821032517 66 155 4.0 8.0 0.00 0.00 0.00 83 1016.8
20180821031516 66 146 5.0 10.0 0.00 0.00 0.00 83 1016.7